Location: Sangrey
(48.2845°N, 109.8206°W)
Time: 21:31:02
(UTC+00:00)

Envisat - Pass Details

Date: 28 January 2022
Orbit: 764 x 765 km, 98.2° (Epoch: 21 May)

Event Time Altitude Azimuth Distance (km) Brightness Sun altitude
Rises 11:23:07 0° 23° (NNE) 3,242 6.7 -34.8°
Reaches altitude 10° 11:25:45 10° 34° (NE) 2,311 5.9 -34.3°
Maximum altitude 11:30:07 28° 94° (E) 1,402 4.8 -33.6°
Drops below altitude 10° 11:34:27 10° 153° (SSE) 2,297 5.6 -32.9°
Sets 11:37:03 0° 165° (SSE) 3,219 6.3 -32.5°
